RH
10 11 11 12 12 11 12 12 12 13 13 12 13 13 13 13 12 12 12 12 12 12 12 12 13 13 12 14 15 17 20 21 22 21 21 20 20 19 19 19 19 18 17 14 12 9 7 6 5 4 3 3 3 4 4 4 5 5 5 7 8 10 12 12 13 15 16 16 16 16 17 17 18 21 22 23 25 29 35 41 51 66 82 92 97 99
11 12 12 13 12 12 12 13 13 14 13 13 14 13 13 14 14 13 13 13 13 14 14 13 13 14 14 15 17 19 23 23 23 23 22 22 21 21 21 21 21 19 17 15 12 9 7 6 5 4 3 3 4 4 4 4 4 5 7 10 14 17 18 21 22 23 23 23 22 22 22 20 19 18 17 17 18 20 24 29 32 40 53 68 80 89
12 12 12 12 12 12 12 13 13 12 13 14 14 14 15 14 14 14 14 14 14 15 15 15 14 15 15 16 18 22 25 25 25 25 24 24 23 23 23 23 22 20 18 15 12 10 8 6 5 4 3 4 4 4 4 5 5 7 11 16 19 22 24 27 28 29 29 29 28 26 25 25 24 22 21 19 18 17 17 18 20 23 30 40 52 66
12 12 11 11 11 10 11 12 12 12 13 13 13 14 15 15 15 15 15 16 16 16 16 16 16 16 16 17 21 25 27 28 27 27 27 26 25 25 25 25 24 21 19 16 13 10 8 6 5 4 3 4 5 5 5 5 6 9 14 19 21 23 27 31 33 34 34 32 30 29 27 26 25 24 23 21 20 20 18 16 15 15 18 23 29 39
12 11 10 9 10 9 10 11 11 12 13 13 13 13 13 16 17 17 17 17 17 17 17 17 17 17 17 20 24 28 29 30 29 30 29 28 27 27 28 27 25 22 19 16 13 10 8 6 5 4 3 4 5 6 6 6 8 13 17 21 23 26 30 35 38 39 37 33 31 29 27 26 25 24 23 21 20 19 19 18 17 15 15 16 16 18
11 9 8 8 8 8 9 10 10 11 12 13 13 13 15 17 18 19 19 19 19 18 18 18 18 18 20 22 26 29 30 31 31 32 31 30 30 30 30 29 26 23 20 17 14 11 9 7 5 4 4 4 6 6 7 7 10 14 19 23 25 29 36 41 43 41 37 33 32 30 28 26 25 25 22 20 18 17 17 17 17 17 15 14 14 12
9 8 7 6 7 7 8 8 8 10 11 12 14 15 17 18 20 21 20 21 21 20 20 20 20 20 23 25 27 30 32 33 34 35 34 33 33 33 33 31 28 25 22 18 15 12 9 7 6 4 4 5 6 7 8 9 12 15 19 24 29 36 43 46 45 41 36 33 33 32 29 29 28 26 21 16 13 12 12 13 14 14 14 14 13 13
9 8 6 5 6 6 7 7 7 8 10 13 15 17 18 19 20 20 21 22 22 22 22 22 22 24 28 30 29 32 35 35 37 38 38 37 37 36 35 33 29 26 23 20 17 13 10 8 6 5 4 5 6 8 9 10 13 17 22 27 36 44 48 49 46 41 36 35 36 35 31 31 32 29 23 15 9 9 9 9 9 10 10 10 11 11
9 8 8 6 6 6 6 6 6 7 9 12 15 17 18 19 20 21 21 22 22 23 25 27 29 29 32 34 32 34 38 38 41 44 43 42 41 40 38 35 32 28 24 21 18 14 11 8 6 5 4 4 6 8 9 11 14 18 24 32 41 49 52 51 48 42 38 37 38 38 34 33 35 34 30 22 11 8 9 9 8 8 8 8 8 8
10 10 9 7 6 5 6 5 6 7 8 10 13 16 16 17 20 20 21 21 22 25 29 35 37 34 35 37 36 38 42 46 49 50 49 47 46 43 41 38 34 30 26 22 19 15 12 9 7 5 4 4 6 8 10 12 16 20 25 34 44 51 54 53 51 46 40 38 40 41 38 36 38 38 37 32 21 11 9 9 10 9 9 9 9 8
11 10 8 6 5 5 5 6 7 7 7 8 10 11 13 16 18 18 19 21 23 31 37 41 43 40 38 41 43 45 50 56 58 56 55 53 50 48 45 41 37 32 28 24 20 17 13 10 8 6 5 4 5 8 11 13 16 21 25 31 40 50 56 56 54 49 44 41 41 43 42 40 41 42 42 41 36 25 15 10 10 11 11 10 10 10
10 9 7 6 5 5 5 6 7 7 8 8 8 9 11 13 15 16 18 20 27 37 42 45 47 43 42 47 49 51 56 62 62 60 60 58 55 53 50 45 40 34 30 26 22 18 15 11 9 7 5 5 5 7 10 13 17 22 26 30 35 44 54 59 58 53 48 45 44 45 45 43 43 46 47 47 48 44 34 22 14 10 11 12 12 11
11 9 8 7 6 6 6 6 7 7 9 9 9 9 9 12 15 16 18 22 29 37 42 47 46 39 43 52 53 56 61 61 60 62 63 61 59 57 54 49 43 37 33 28 24 20 16 12 9 7 5 4 5 7 10 13 17 22 27 31 35 40 50 61 64 59 53 49 48 48 48 47 46 49 51 52 53 54 52 45 34 23 15 12 11 11
11 9 7 6 6 6 6 6 7 7 9 10 10 9 10 14 17 17 18 21 25 31 37 44 45 38 42 53 57 59 61 59 61 66 65 63 62 60 58 53 47 41 36 31 27 23 18 14 11 8 6 5 5 7 9 12 17 22 27 32 36 40 47 59 67 66 59 53 51 51 52 52 51 51 55 58 59 59 61 60 56 50 40 28 19 13
10 9 8 7 6 7 7 7 7 7 9 10 10 12 15 18 21 23 26 27 25 27 31 38 46 44 43 54 62 61 60 62 65 67 66 65 65 65 62 57 51 44 39 35 31 26 20 16 13 9 7 5 5 6 8 11 15 21 28 32 37 42 47 57 68 72 66 58 54 53 54 55 55 55 57 61 65 66 66 66 66 67 66 59 51 40
11 10 9 8 7 8 9 9 9 9 10 11 12 15 17 18 23 27 29 31 28 27 29 35 49 52 44 53 63 60 60 64 67 68 69 69 69 69 66 61 55 49 44 39 33 28 24 18 15 11 8 6 5 5 8 11 15 20 26 30 33 39 46 55 66 74 75 67 58 55 55 55 58 60 61 63 67 69 69 70 71 72 75 75 75 73
12 11 10 10 11 10 10 11 12 11 12 14 14 14 15 19 27 27 26 30 29 30 34 38 51 54 45 50 58 58 61 65 69 73 72 71 70 69 69 65 60 54 48 44 37 31 27 22 17 12 9 7 5 5 7 10 13 17 21 24 25 29 39 51 63 73 79 75 64 58 55 54 55 60 64 64 66 70 72 72 72 74 78 79 79 82
12 12 11 12 12 11 11 12 14 15 15 17 15 14 17 21 27 28 28 31 30 31 33 38 55 60 50 53 58 59 66 68 71 75 70 69 71 70 73 71 65 60 54 48 42 35 30 25 20 15 10 8 6 5 7 8 11 13 15 18 19 21 28 43 59 71 80 81 72 61 56 52 52 56 62 65 66 70 74 75 74 75 79 82 82 84
12 12 12 12 12 11 12 13 15 16 16 17 17 19 22 23 26 32 38 40 37 36 32 32 55 68 56 57 62 61 67 69 69 73 70 70 75 75 76 76 71 66 60 53 46 39 34 29 23 18 12 9 7 5 6 7 9 11 13 15 16 17 22 34 52 68 79 83 76 66 57 51 50 52 57 63 66 71 75 77 78 79 82 84 84 86
12 11 11 11 11 11 14 14 14 15 14 15 17 18 21 22 25 33 44 52 49 48 44 33 50 73 66 62 65 63 68 72 70 74 76 78 82 81 80 82 78 72 64 57 51 43 39 33 27 21 15 11 8 6 6 7 8 10 12 13 14 14 16 26 44 64 78 83 79 71 62 52 48 50 54 58 62 68 74 78 80 81 82 83 84 84
13 13 12 12 13 13 14 14 15 17 17 18 17 17 21 24 27 30 38 51 54 54 58 48 51 73 76 68 69 68 72 75 74 77 81 82 83 82 85 86 82 76 69 63 56 49 44 38 32 25 18 13 9 7 6 6 8 10 10 11 13 12 12 19 35 58 75 80 80 75 67 56 49 50 54 57 59 62 70 76 79 81 81 80 81 82
14 14 12 13 14 15 16 16 16 18 18 22 22 20 23 28 33 35 34 45 56 60 66 64 60 70 75 72 74 75 77 80 78 77 78 78 79 79 83 86 83 79 75 68 62 55 49 44 37 30 23 16 11 8 6 6 7 9 9 10 11 12 12 14 28 53 72 78 80 79 71 61 52 51 56 59 58 58 65 73 77 79 81 80 80 81
13 13 13 14 15 18 19 17 17 18 16 21 27 26 28 33 38 43 39 42 57 67 70 68 67 74 78 78 82 82 83 86 82 79 77 75 75 75 78 83 83 81 77 73 68 61 54 49 42 35 28 20 14 10 7 6 6 8 9 9 10 12 13 13 22 48 68 75 79 78 72 65 56 51 56 60 59 57 60 69 75 78 81 80 79 80
13 14 14 14 14 16 18 16 16 18 16 18 26 30 33 35 38 42 42 43 55 71 76 68 67 80 86 85 88 88 87 89 85 80 77 71 71 73 77 81 82 79 78 77 74 67 60 55 48 41 33 25 18 12 8 6 6 8 8 9 10 10 11 12 19 40 63 74 78 77 72 67 58 53 56 59 58 57 58 66 74 77 80 81 79 79
14 14 14 14 14 13 15 15 14 18 18 17 21 26 31 35 38 42 43 45 52 65 78 73 64 77 90 88 89 89 86 85 83 79 75 69 68 73 76 79 78 77 78 79 79 74 66 61 55 47 39 31 23 15 10 7 6 7 8 8 9 9 10 11 14 32 59 74 77 76 70 64 57 54 55 55 56 58 57 64 74 78 80 81 79 79
15 16 17 18 17 15 17 20 19 21 23 21 22 28 35 39 44 49 49 50 52 58 76 83 69 67 81 86 87 88 85 83 81 78 75 72 73 75 75 75 76 77 79 80 82 79 72 66 60 53 45 37 29 19 12 9 6 7 8 8 8 9 9 10 11 27 55 72 75 71 65 60 55 52 52 53 56 58 57 63 75 80 81 82 81 80
17 19 22 24 24 22 24 28 28 28 29 29 29 32 39 43 46 55 58 57 58 56 67 85 81 69 74 83 86 87 86 84 81 79 78 78 79 77 75 76 78 79 79 80 82 83 78 71 65 59 52 43 35 25 15 10 7 6 7 8 8 8 9 10 11 24 50 66 66 63 59 54 51 50 53 55 56 58 58 64 75 80 81 82 81 81
18 20 23 28 30 27 27 31 33 34 33 32 33 36 41 45 48 59 65 60 61 59 59 74 86 80 76 83 89 89 87 85 84 84 83 81 82 81 80 82 82 80 79 80 82 84 83 77 69 64 58 50 42 32 20 12 8 7 7 8 8 8 8 10 12 23 45 56 55 54 52 49 49 53 56 56 57 57 59 66 75 80 80 79 80 82
18 21 21 27 34 32 29 32 35 38 37 35 36 40 42 44 48 58 65 61 60 64 62 66 80 84 82 84 89 90 90 89 89 91 89 86 86 87 86 85 84 82 81 80 81 84 85 82 75 69 64 58 50 39 26 16 10 8 7 7 8 8 8 10 13 24 40 48 48 48 46 46 52 56 56 55 55 57 62 71 78 81 81 80 80 82
17 21 20 23 33 37 35 36 39 40 39 36 39 42 43 46 49 56 63 62 59 63 66 67 73 81 85 87 88 92 95 96 96 97 95 91 90 90 88 86 84 84 83 82 82 84 87 86 81 75 70 64 57 47 34 21 12 9 7 8 8 8 8 9 13 23 34 41 42 41 42 48 54 55 53 53 56 61 69 76 79 82 83 82 82 82
17 21 21 20 28 36 36 37 40 40 37 37 39 41 43 48 53 58 64 65 59 60 67 71 72 75 80 85 90 96 100 101 101 100 96 93 91 89 87 86 85 84 84 83 83 84 86 88 87 82 76 70 64 55 42 27 16 10 8 8 9 9 8 9 12 20 29 35 36 35 40 50 53 52 53 55 60 67 71 73 77 82 83 84 86 87
18 20 23 21 25 33 33 32 36 37 34 35 38 40 45 49 53 60 66 65 61 61 65 69 71 73 76 82 89 96 100 102 102 100 95 92 90 87 87 88 85 83 83 83 84 84 85 89 91 88 82 76 69 62 51 35 21 12 9 8 9 9 9 9 11 17 24 30 31 33 41 48 49 49 54 58 63 67 69 71 78 82 84 87 91 92
21 22 24 23 24 31 34 32 34 37 36 35 37 41 46 50 52 58 64 63 60 59 60 62 66 70 74 79 85 91 96 98 100 100 97 91 87 87 89 86 82 81 84 84 83 84 86 89 92 92 88 81 74 68 60 45 27 15 10 8 9 10 9 9 11 15 21 26 28 33 40 43 45 49 55 59 62 65 69 74 78 79 81 84 85 84
23 24 27 27 25 29 35 34 35 39 39 36 36 42 48 49 50 56 62 62 58 56 57 58 60 64 68 75 82 85 88 93 98 101 99 92 89 90 88 83 80 81 85 85 84 85 87 89 92 93 92 87 81 74 67 55 37 20 11 8 9 10 10 9 10 13 19 23 27 33 39 41 44 50 55 57 60 64 68 70 70 69 70 69 68 67
26 27 30 31 30 30 34 34 34 38 42 41 40 45 48 48 48 52 58 61 58 55 56 55 55 58 60 69 78 80 82 90 98 100 98 93 91 90 86 82 80 81 85 86 86 85 86 87 89 92 93 91 87 81 73 64 47 26 13 9 9 10 10 10 10 12 17 21 25 32 38 40 42 48 51 54 58 60 60 59 57 57 57 56 57 57
28 30 32 33 34 34 34 36 36 37 43 45 43 44 47 47 48 50 53 57 57 54 54 53 52 53 55 62 72 76 78 88 96 97 95 91 88 88 87 83 79 80 86 90 89 85 84 85 87 89 91 93 92 88 81 73 57 34 17 10 9 10 11 11 10 11 15 19 23 29 34 36 38 42 45 49 53 53 51 50 49 49 51 52 53 53
30 33 35 36 38 38 35 37 38 36 38 40 39 42 46 47 50 51 49 52 54 51 51 51 50 50 52 57 65 72 78 87 93 93 90 86 84 86 86 83 79 82 89 93 90 85 83 83 85 87 90 93 95 93 88 82 68 45 23 13 10 10 12 11 10 11 13 16 20 25 28 30 33 37 41 44 46 45 43 42 42 44 47 51 56 57
33 36 39 40 43 45 41 39 37 35 36 39 40 43 47 48 51 51 47 47 49 48 48 48 47 47 49 53 62 71 79 87 91 90 86 84 85 87 85 83 83 86 90 92 89 84 81 81 83 85 87 91 96 97 95 91 79 57 32 16 11 10 12 12 11 11 11 14 17 21 24 27 30 33 36 38 38 36 35 35 37 41 48 55 62 66
37 40 43 46 49 52 50 48 46 42 42 45 46 47 49 50 51 49 45 44 45 45 45 46 45 44 46 52 62 74 84 91 94 94 91 89 90 90 88 87 87 88 90 90 87 83 79 78 81 84 85 88 94 99 101 98 89 69 44 22 12 11 12 13 12 12 11 12 14 17 20 22 24 27 29 29 28 28 29 32 36 41 49 57 63 67
40 42 44 49 54 57 55 54 52 50 50 51 50 49 50 51 50 48 45 42 43 43 43 43 41 42 46 54 64 78 90 97 99 98 97 96 96 94 91 89 89 89 90 88 85 80 74 73 78 83 83 85 91 97 102 104 98 82 57 31 16 11 11 13 14 13 12 12 13 13 15 17 18 20 21 20 21 23 27 31 36 41 48 53 58 63
41 44 46 51 57 59 59 56 51 49 51 53 53 54 53 50 49 48 47 46 46 45 42 39 38 40 47 56 67 83 96 101 100 100 100 99 99 98 94 91 92 92 90 87 84 78 70 68 74 80 80 83 89 95 100 104 105 94 72 44 22 13 11 12 15 15 14 13 14 14 16 16 17 18 19 20 22 25 29 34 39 44 50 53 58 66
42 44 47 53 58 60 60 60 54 47 46 52 58 59 56 52 50 47 46 49 52 46 38 34 34 38 48 61 76 91 100 100 99 100 100 100 101 100 97 96 96 94 90 85 80 74 66 62 68 77 79 82 89 95 98 102 105 102 86 60 34 17 11 11 14 16 16 15 16 17 18 19 20 21 23 24 27 31 34 39 45 50 55 58 63 69
49 50 49 52 59 60 59 63 65 54 45 53 64 62 55 53 51 48 47 51 50 40 30 28 33 42 57 72 87 97 100 100 100 100 100 101 102 102 100 99 99 96 89 81 73 68 62 58 62 70 76 81 89 95 97 99 103 104 97 77 51 26 12 9 13 16 17 16 17 18 19 21 23 25 27 29 32 35 39 43 48 53 58 61 64 68
56 57 54 55 61 62 60 67 74 63 50 55 65 66 60 54 52 50 49 45 37 27 26 32 42 55 69 80 91 98 100 100 100 100 101 101 101 101 99 98 98 95 85 74 65 59 55 53 55 61 68 76 86 93 97 99 101 104 102 92 71 43 20 10 10 14 17 18 17 18 19 21 24 26 29 31 34 38 42 46 50 54 58 63 66 68
60 60 58 61 66 64 63 71 73 63 58 62 65 63 59 55 55 52 42 29 22 24 34 45 54 63 71 81 91 98 100 100 100 100 101 100 101 101 99 96 95 91 80 66 56 49 46 46 48 53 61 70 79 89 96 98 99 103 104 100 88 62 34 15 9 11 15 18 18 19 19 20 22 25 28 31 35 39 43 47 51 54 58 62 65 65
64 60 58 63 63 57 60 70 68 56 60 69 65 56 54 55 53 42 26 20 25 36 47 54 57 63 73 84 94 100 101 101 100 100 101 100 100 101 101 97 91 82 69 55 43 38 37 37 41 47 54 64 75 87 95 96 96 100 104 104 98 80 52 28 13 9 12 16 18 20 20 20 22 24 26 30 34 38 42 46 49 53 56 58 60 60
59 56 58 60 56 49 51 61 59 50 55 66 64 57 55 49 37 25 21 29 40 47 51 55 60 71 85 94 99 101 102 102 100 100 102 101 100 101 101 94 82 69 56 42 31 27 26 27 33 38 44 56 71 86 96 96 93 96 102 105 104 94 72 45 23 11 9 12 16 20 21 21 22 24 26 29 31 35 40 44 47 51 53 55 55 54
47 48 52 49 47 47 48 51 51 45 51 65 67 56 45 32 23 23 32 41 46 49 54 62 73 87 98 101 101 101 102 102 100 100 102 102 101 99 93 81 66 53 41 30 23 20 18 18 23 29 34 44 60 78 94 98 92 91 97 104 106 101 87 65 39 20 10 8 11 17 20 21 22 22 25 28 31 34 37 41 45 48 49 51 52 50
40 45 46 40 39 45 48 49 47 39 42 56 57 40 25 22 25 33 40 43 46 54 64 76 89 99 102 102 101 101 102 101 100 100 100 99 95 88 76 62 48 37 28 21 17 16 16 14 16 21 27 34 45 64 86 97 93 86 89 99 105 104 96 81 58 34 18 9 7 11 16 21 23 22 23 26 29 32 36 38 42 45 47 48 48 47
42 46 45 41 40 43 47 52 49 36 29 33 31 21 18 25 32 36 39 43 50 62 76 90 99 101 100 100 101 101 101 101 102 99 94 89 83 71 55 43 33 25 20 17 15 14 14 14 13 16 20 25 35 51 74 91 94 86 82 91 101 103 100 92 75 52 30 15 8 7 10 16 22 24 24 24 25 29 33 36 38 42 44 45 45 44
47 44 42 43 44 45 51 52 43 29 19 17 16 17 22 29 32 34 39 47 57 72 89 99 102 100 99 100 100 100 100 103 104 96 85 77 68 54 39 29 23 18 17 16 15 13 13 13 13 13 14 18 26 39 58 79 92 89 80 83 94 101 101 98 88 69 46 26 14 8 7 9 16 22 26 26 24 24 27 31 34 37 39 41 42 41
Wind_Speed
22 23 23 24 24 26 27 28 30 31 33 34 35 37 37 37 40 42 42 41 41 41 44 45 44 44 47 49 52 55 57 58 60 62 64 66 68 70 72 75 77 80 82 85 89 94 97 100 101 98 95 93 88 82 76 70 66 62 58 54 50 47 45 45 44 45 46 47 50 52 53 53 55 58 61 64 67 71 75 79 81 81 82 83 85 85
23 23 24 25 26 28 29 30 31 31 33 34 35 37 39 39 39 41 42 43 43 43 45 46 46 46 48 51 53 55 57 59 61 63 65 67 68 70 72 75 78 81 83 86 89 93 97 99 100 98 95 93 89 82 75 69 64 58 53 48 43 41 39 39 40 41 43 44 46 49 51 52 52 54 57 59 62 66 71 76 80 82 84 85 86 87
23 24 25 26 28 29 30 30 31 32 33 34 36 37 39 40 40 40 42 45 46 45 46 46 48 49 50 52 55 56 57 60 62 64 65 66 68 70 72 75 78 81 84 86 90 93 96 98 99 98 95 93 89 83 75 67 61 54 47 42 40 40 40 41 41 43 44 45 45 48 51 53 54 55 56 56 57 61 66 70 74 79 83 86 88 89
24 25 26 27 29 30 31 31 32 33 34 35 37 38 38 40 41 42 43 46 47 47 48 48 48 50 51 53 55 56 58 61 62 64 65 66 68 70 72 75 78 80 83 86 90 94 96 98 99 98 95 93 89 83 75 66 59 51 44 40 40 41 43 44 45 46 46 46 47 47 49 51 54 57 59 58 57 58 61 64 68 73 78 83 87 89
26 26 28 29 30 31 32 32 33 33 34 35 36 38 39 40 42 44 45 46 48 49 50 50 49 51 53 53 54 57 59 60 62 63 64 66 68 71 73 76 78 80 83 86 89 93 96 98 99 98 95 92 88 81 74 65 55 48 43 41 42 44 46 47 47 47 46 46 47 47 47 48 51 54 57 59 58 59 60 62 64 68 72 76 81 85
27 28 29 30 31 32 33 33 34 34 35 36 37 38 40 41 41 43 45 47 49 50 51 52 52 52 54 54 56 58 60 61 62 63 64 66 68 71 74 76 78 80 83 85 88 92 96 99 100 98 95 91 87 80 71 62 52 45 41 42 44 45 48 49 49 49 47 46 46 45 45 45 47 50 53 55 57 59 60 62 63 65 67 70 74 78
28 30 31 32 32 33 34 35 36 36 36 37 38 39 40 42 42 43 45 47 49 51 52 54 55 54 55 56 57 59 61 61 62 63 64 67 69 71 73 76 78 79 82 84 87 90 95 99 100 99 96 91 86 79 70 61 51 44 41 42 45 46 47 48 49 49 48 46 45 45 44 44 46 47 49 51 53 55 57 59 61 61 62 65 68 72
29 31 32 33 34 34 35 36 37 37 38 38 38 39 40 41 42 42 44 46 48 51 53 55 57 56 55 57 59 59 61 62 62 63 65 67 69 71 73 76 78 79 82 84 87 89 93 97 99 99 98 93 87 80 70 60 51 44 42 43 45 47 47 47 48 48 47 46 45 44 43 43 45 45 46 47 48 50 52 53 55 56 57 59 62 64
30 31 33 34 35 36 36 37 38 39 39 39 39 40 40 41 42 42 43 46 47 50 53 54 57 58 55 56 59 59 60 62 63 64 66 68 70 72 74 76 78 80 82 84 86 89 92 95 98 99 99 95 89 81 70 59 51 45 43 43 45 47 46 46 47 47 46 45 44 43 42 42 42 44 44 43 44 45 47 48 50 51 51 53 55 56
31 32 34 35 36 36 37 38 39 39 40 40 40 39 40 40 42 43 44 45 47 51 54 54 56 59 58 57 58 59 60 62 63 64 66 68 70 72 73 75 77 78 80 83 85 88 91 94 98 99 99 97 91 83 72 59 51 46 44 44 45 47 46 44 45 45 45 44 43 42 41 41 41 41 41 41 40 41 43 44 45 45 46 48 49 50
31 33 34 35 36 37 37 38 39 40 40 40 40 40 40 41 43 45 46 47 48 51 54 55 56 58 59 58 58 59 60 60 62 63 65 67 69 71 72 74 76 78 80 82 85 87 89 93 96 98 99 97 92 85 73 61 51 46 45 45 45 46 46 44 43 44 44 43 42 40 40 40 40 39 39 39 38 37 38 39 40 40 41 42 43 45
31 32 33 34 36 37 38 38 39 40 41 41 42 43 43 43 44 46 48 49 50 51 53 55 56 58 59 58 58 59 59 59 60 62 64 65 67 70 72 74 76 78 79 82 84 86 89 92 95 98 99 97 93 86 76 64 54 47 46 47 47 47 47 45 43 42 43 42 41 39 39 39 39 39 38 37 36 35 35 35 35 36 36 37 38 39
30 31 32 34 35 37 38 39 40 40 42 43 45 45 45 46 46 47 50 51 50 50 51 54 56 58 58 58 59 60 59 59 60 62 63 65 67 70 72 74 77 79 80 82 84 87 90 92 95 98 99 97 94 88 80 69 57 50 46 46 48 49 48 46 44 42 42 42 41 39 38 38 38 38 37 36 35 34 33 32 31 31 31 32 32 34
31 32 34 35 36 38 40 41 42 43 44 45 47 48 49 50 50 51 52 54 52 50 50 52 56 59 59 59 60 61 60 61 62 62 64 66 68 70 72 74 76 78 80 83 85 87 90 92 94 97 99 98 95 90 83 73 62 54 49 48 48 48 48 47 44 42 41 41 41 39 37 37 37 37 36 36 35 34 33 32 30 29 28 27 27 28
33 34 35 37 38 40 41 43 45 46 46 48 48 49 50 50 51 51 52 54 55 52 50 52 57 60 61 61 61 62 62 63 63 63 65 67 69 70 72 73 75 77 79 82 84 86 88 90 93 95 97 98 96 92 85 76 66 58 53 51 50 49 48 46 45 42 41 40 40 39 37 36 36 36 35 35 34 34 33 32 30 29 28 27 25 24
34 35 36 38 39 41 42 43 45 48 49 50 50 49 50 50 50 50 51 53 56 55 53 54 57 61 62 62 63 64 64 64 64 64 65 67 68 69 70 72 74 76 78 80 82 84 85 88 91 94 96 97 96 93 87 78 69 62 57 54 53 51 49 46 44 42 41 40 39 38 36 34 34 35 34 34 34 33 32 31 30 29 28 27 25 23
34 36 37 38 39 40 42 43 45 47 48 49 49 50 51 50 49 49 51 52 55 58 56 55 57 60 62 63 64 65 66 65 65 65 66 67 68 69 70 72 74 76 78 79 81 83 85 87 90 93 95 96 96 94 88 80 71 64 59 56 54 52 50 48 45 42 40 39 38 37 35 33 33 33 33 33 33 32 31 30 29 27 27 26 24 23
34 36 37 38 39 40 42 43 44 45 46 48 49 50 51 51 50 50 51 53 55 58 58 56 57 60 63 64 65 65 65 65 65 66 67 68 69 69 70 72 74 76 78 80 82 83 85 87 89 92 94 96 96 94 89 82 74 66 60 57 55 53 52 49 46 43 40 39 38 36 34 32 31 31 31 32 32 31 30 29 28 27 26 25 23 21
35 36 37 38 40 41 42 43 43 44 46 47 48 49 50 51 51 51 51 53 55 58 60 58 55 58 64 64 63 64 63 65 66 66 67 68 68 69 70 71 74 75 77 79 81 83 85 86 88 91 93 95 96 94 90 85 78 70 63 58 56 55 53 51 47 43 40 38 37 36 34 32 30 29 29 30 30 30 29 28 27 26 25 24 22 20
36 37 38 39 41 42 42 43 44 46 47 48 49 49 50 51 52 52 51 51 54 58 61 61 56 56 63 63 62 63 63 64 66 66 67 68 67 69 69 71 73 74 76 78 80 82 84 86 87 89 92 94 95 94 91 87 80 73 65 60 57 56 54 52 48 44 40 38 36 35 34 32 30 29 28 28 28 28 27 26 26 25 24 23 21 19
36 38 39 39 40 42 43 44 45 46 47 48 49 50 50 51 52 53 52 51 53 57 60 62 58 56 60 61 61 63 63 64 65 65 66 66 67 68 68 69 71 73 75 77 79 81 82 85 86 88 90 92 93 94 92 88 83 76 69 62 59 57 54 51 48 44 40 38 36 35 34 33 31 30 29 28 27 26 26 25 24 24 22 21 20 18
36 38 39 39 40 41 43 44 44 46 46 46 47 49 50 50 51 53 53 52 53 55 57 60 58 56 59 60 61 62 63 64 65 65 65 66 67 68 68 69 71 73 74 75 77 80 81 83 85 86 88 90 92 93 92 89 84 78 72 66 62 60 57 52 47 43 39 37 35 34 34 33 31 30 30 28 26 24 24 24 23 22 21 20 19 17
36 38 39 40 40 41 42 44 44 46 47 47 46 47 48 49 50 52 54 53 52 52 55 58 58 57 59 60 60 62 62 63 64 65 66 66 68 69 69 70 71 73 74 75 76 78 80 82 83 85 86 88 91 92 92 89 85 80 75 70 66 64 60 53 47 42 39 37 35 34 34 33 31 31 30 28 25 23 22 22 22 21 20 19 18 16
36 38 39 40 41 41 43 45 47 48 50 49 47 46 47 48 50 51 53 53 52 51 53 58 58 57 58 59 60 61 62 63 64 65 66 68 69 70 70 71 72 73 74 75 75 77 79 81 82 83 85 86 89 90 91 89 85 81 77 74 70 67 63 55 47 42 39 36 34 33 34 33 32 31 30 27 24 21 19 20 20 19 19 18 17 16
37 38 40 42 44 45 46 48 50 50 51 52 50 48 47 48 49 51 52 52 52 51 52 56 58 56 56 58 59 60 61 62 63 65 67 69 70 71 71 71 72 74 75 74 75 75 77 79 81 82 84 85 87 89 90 89 86 82 78 75 72 69 65 56 47 41 38 35 34 33 34 33 32 32 30 26 23 19 17 18 18 17 17 17 16 15
37 38 40 43 46 47 47 48 50 50 50 51 50 48 46 46 47 49 51 52 53 52 51 54 57 56 56 57 58 59 61 62 63 65 68 70 70 70 71 72 73 74 75 75 74 74 76 78 80 82 83 84 85 87 88 88 86 83 79 76 73 70 66 57 48 40 36 34 33 33 33 33 33 32 29 25 21 17 15 16 16 16 16 16 16 14
36 37 38 40 43 45 45 45 47 48 48 49 49 47 44 44 45 48 50 52 52 53 51 53 57 59 58 58 59 60 61 62 64 66 68 69 69 70 71 72 73 74 75 75 74 73 74 76 79 80 82 83 84 86 87 87 86 83 80 76 73 71 66 58 48 40 35 34 33 33 33 33 33 31 28 23 18 14 13 14 15 16 16 16 15 14
36 37 38 38 40 43 44 44 45 47 48 48 47 46 44 43 44 46 49 51 51 52 52 52 56 59 59 59 60 62 63 64 65 66 68 69 69 70 71 71 72 74 75 75 74 73 73 75 77 79 80 81 83 84 85 86 85 83 80 77 73 70 66 58 48 40 35 33 33 33 34 34 32 29 25 20 15 12 12 14 15 16 16 16 15 15
36 38 39 38 38 42 44 44 45 46 47 47 46 45 44 43 43 45 48 51 51 52 53 53 54 58 60 60 61 63 64 65 66 67 68 69 70 70 71 71 72 73 74 75 74 73 72 73 75 77 79 80 81 82 84 85 84 83 80 77 73 69 65 58 49 40 34 33 33 34 34 33 29 26 21 17 14 13 13 15 16 16 16 16 16 15
38 38 40 40 38 40 43 43 44 44 45 46 45 45 45 44 44 45 48 51 52 51 53 54 54 56 59 61 61 63 64 65 66 67 68 69 69 70 71 72 72 73 74 75 75 74 73 72 73 75 77 79 80 81 82 83 83 82 80 76 72 69 65 59 49 40 35 33 34 35 34 31 26 22 19 16 15 15 15 16 16 16 16 16 15 15
39 39 41 43 41 40 42 43 43 44 46 46 46 46 46 45 44 45 48 51 52 52 52 54 55 56 58 61 62 63 63 64 65 66 68 69 69 70 72 72 73 73 73 74 75 74 73 71 71 73 75 77 78 79 80 81 82 81 79 75 71 68 64 59 50 42 36 35 35 35 32 28 23 20 19 17 16 16 16 16 16 16 15 15 15 16
40 41 42 44 43 42 44 45 45 46 47 46 46 46 46 46 45 44 46 50 51 52 52 53 56 57 58 60 61 62 63 64 65 67 68 68 69 71 72 72 72 73 73 73 74 73 72 71 70 71 73 75 77 78 79 80 80 80 78 74 70 66 63 59 51 43 37 35 35 34 31 26 22 20 18 17 16 16 16 15 15 15 15 15 16 16
41 42 43 45 45 44 45 47 47 47 47 47 47 47 47 47 46 44 45 48 50 51 52 53 55 56 58 60 61 62 63 65 66 67 68 68 69 71 72 72 72 72 72 72 73 73 72 71 69 69 71 73 75 76 77 78 79 79 77 73 69 65 62 58 52 45 39 36 34 32 29 25 22 20 19 18 17 17 16 15 15 15 15 16 16 17
41 42 43 45 46 45 46 47 47 46 47 48 48 47 47 47 47 44 43 47 50 51 52 53 54 56 58 60 61 63 64 66 67 67 67 68 69 70 71 72 72 72 71 71 72 72 72 71 70 69 70 72 74 75 76 76 77 77 75 72 68 64 61 57 52 46 40 36 33 31 28 25 22 21 20 19 18 17 16 15 16 16 17 17 17 18
42 43 44 44 46 47 47 48 48 47 46 48 48 46 46 47 48 46 43 45 50 51 52 54 56 57 59 60 62 64 65 66 67 67 67 68 69 70 72 72 71 71 71 71 71 72 72 71 71 70 70 70 72 74 75 75 75 76 74 71 67 62 59 56 52 46 40 36 32 29 26 24 22 21 20 20 19 18 17 17 17 18 18 18 18 18
42 43 44 45 46 47 48 48 50 48 45 45 46 46 47 48 49 48 45 44 49 52 53 55 56 58 60 61 63 65 66 66 67 67 67 68 69 71 71 70 70 70 70 70 71 72 72 72 71 71 70 70 70 72 73 74 74 74 73 71 66 61 57 54 51 46 41 36 32 28 25 24 22 21 21 21 19 18 17 18 18 18 18 18 18 18
42 43 44 45 46 48 49 49 50 49 47 47 48 48 49 49 50 50 48 46 49 52 53 55 57 59 61 62 63 66 67 67 67 67 67 68 70 71 70 69 69 69 69 70 70 71 72 72 72 71 71 70 70 70 72 72 72 72 72 70 66 61 56 53 50 46 41 36 32 28 25 23 22 22 21 20 19 18 18 18 18 18 18 18 18 18
42 43 44 45 46 48 50 50 51 51 50 49 50 50 50 50 50 51 51 50 51 53 55 57 59 60 62 63 65 66 68 67 67 66 67 68 69 70 69 68 68 68 68 69 70 71 72 72 72 72 71 70 70 69 70 71 71 70 70 68 65 60 55 51 48 45 41 36 32 28 25 23 22 22 21 20 19 18 18 19 19 19 19 18 18 17
42 42 43 45 45 46 49 50 51 51 50 49 50 49 49 50 50 51 53 52 53 55 57 59 61 62 64 64 65 67 68 68 67 66 66 67 69 69 68 67 67 67 68 69 70 71 72 72 72 72 72 71 70 69 69 69 69 69 69 67 64 60 54 50 47 44 40 35 31 27 25 23 22 21 21 19 19 18 19 19 19 19 18 17 16 16
42 42 43 44 44 45 47 48 48 49 49 48 49 50 50 50 51 53 55 55 56 58 60 61 63 63 64 65 66 67 69 69 68 66 66 66 68 68 68 67 67 67 68 69 70 71 71 72 72 72 72 72 71 68 68 68 68 68 67 66 64 60 54 49 45 41 38 34 30 27 24 23 22 21 20 19 18 18 18 18 18 17 16 15 15 15
41 42 44 44 44 45 47 48 48 48 47 47 49 51 51 51 52 54 56 58 59 61 62 63 63 64 64 65 66 67 68 68 67 65 65 65 67 68 68 67 67 67 68 69 70 70 71 72 72 72 73 73 72 69 67 67 66 66 65 65 63 60 55 49 43 39 36 32 29 26 24 23 22 21 19 18 18 17 17 16 16 16 15 15 15 16
42 43 44 44 44 45 46 47 49 49 48 48 50 51 51 52 54 55 57 59 61 63 63 63 63 63 63 64 65 66 67 66 65 64 63 64 66 67 67 67 68 68 69 70 70 70 71 71 72 72 72 73 72 70 67 66 65 65 64 63 62 60 57 51 43 38 34 31 28 26 24 22 21 20 18 17 17 16 16 15 15 15 15 15 15 15
42 44 45 44 45 46 46 45 48 50 49 48 50 51 53 54 56 57 59 60 62 63 63 63 62 63 63 64 65 66 66 65 63 62 62 63 65 66 67 68 68 69 70 70 70 70 70 71 71 71 72 72 72 71 68 66 64 64 63 62 61 60 58 52 45 38 34 30 28 25 24 22 21 19 18 17 17 16 16 16 16 15 15 15 15 15
41 43 45 45 45 46 45 44 45 49 50 49 49 51 54 55 57 59 61 62 63 63 62 61 61 62 63 64 65 65 64 63 62 61 61 62 63 65 67 68 68 69 70 70 70 70 70 71 71 71 71 71 72 71 69 66 64 63 62 60 60 59 57 54 48 41 35 31 28 26 24 23 21 20 18 17 17 17 17 16 16 16 15 14 14 14
41 43 44 44 44 45 44 42 44 47 49 49 50 51 53 56 58 61 63 63 62 61 60 60 60 61 63 64 65 64 63 62 61 61 61 61 62 64 66 67 69 70 70 71 70 70 70 70 71 70 70 70 71 70 69 67 64 62 61 59 58 58 57 55 51 44 38 32 29 26 25 23 22 21 20 19 18 18 17 17 17 16 16 14 14 13
42 44 44 43 44 44 42 40 44 47 47 48 51 52 54 57 59 62 63 61 59 58 58 59 60 61 63 64 64 64 63 62 61 60 60 61 61 63 65 67 69 70 70 70 70 70 70 70 70 70 69 69 70 70 69 67 65 62 60 59 57 56 55 54 52 47 42 36 31 27 25 24 23 22 21 20 19 19 18 18 17 17 16 15 14 13
43 43 43 44 45 45 43 42 45 47 46 48 52 54 56 59 61 60 58 56 56 56 57 58 60 61 63 64 64 64 63 63 62 61 60 61 62 63 65 68 69 69 69 70 70 69 70 70 70 69 69 68 68 69 68 67 65 63 60 58 57 55 54 53 52 49 45 40 34 29 27 25 24 23 22 21 20 20 19 18 17 17 16 16 15 14
45 44 44 45 46 45 45 45 46 46 46 49 53 55 58 59 58 55 54 53 54 56 57 58 60 62 63 64 65 65 64 64 63 62 62 62 63 64 66 67 68 69 69 69 69 69 70 70 70 69 68 67 67 67 67 67 65 63 61 58 56 55 53 52 51 50 47 43 38 33 29 27 25 24 23 22 22 21 20 19 18 17 17 16 16 15
46 44 45 47 46 45 46 48 49 48 46 48 53 56 57 56 54 53 53 54 55 57 58 60 61 63 64 65 65 66 66 66 65 64 64 64 64 65 66 67 68 68 68 68 68 69 70 70 70 69 67 66 65 65 66 66 64 62 61 59 57 54 53 51 50 49 48 45 41 36 32 29 27 25 25 24 23 22 21 20 20 19 18 17 17 17
44 44 46 48 47 46 47 49 52 52 51 52 55 56 55 54 54 54 55 56 57 59 60 62 63 65 66 67 67 67 67 67 66 65 65 65 65 65 65 66 66 67 67 67 68 68 69 69 69 68 67 65 64 64 65 65 64 62 60 59 57 54 52 50 49 48 48 46 44 40 35 32 28 27 26 25 24 23 22 22 21 20 19 19 18 18
43 44 46 48 48 47 48 51 53 55 55 55 56 56 55 55 56 56 56 58 60 62 63 65 66 67 68 68 69 69 68 67 66 66 66 66 65 65 65 65 65 66 67 67 67 68 68 68 68 67 66 65 63 63 63 64 63 61 59 59 58 55 52 50 48 47 47 46 45 42 39 35 31 28 27 26 26 25 25 24 23 22 21 20 20 19
Wind_Direction
1 358 356 354 350 349 351 351 351 349 345 345 344 340 341 344 343 342 343 343 344 344 343 345 348 347 345 346 347 348 348 348 349 349 349 349 350 349 349 349 349 348 348 349 348 347 346 344 343 343 341 339 337 334 331 328 324 321 317 313 310 308 305 303 302 301 300 297 293 290 287 282 278 274 270 265 261 256 252 250 248 247 248 248 249 248
357 355 354 350 349 350 351 352 351 347 344 344 342 340 341 343 342 340 338 338 340 342 342 342 343 344 345 345 347 348 348 348 349 350 350 350 349 349 350 349 349 349 349 349 349 348 347 345 344 344 343 341 339 336 333 330 327 323 319 316 315 314 313 311 309 306 303 301 298 295 292 289 285 280 276 272 268 264 259 255 251 248 247 246 246 246
355 354 352 350 350 351 351 351 347 345 345 342 340 342 341 339 339 338 337 337 338 339 339 339 340 341 343 344 346 348 348 349 350 350 350 349 349 350 350 349 349 349 349 349 349 349 349 347 346 345 344 342 340 338 335 332 328 325 320 318 318 317 316 315 312 308 305 303 299 296 294 294 292 288 283 278 273 269 265 261 257 254 250 248 245 244
355 352 351 351 350 349 350 348 345 345 344 342 341 341 340 338 337 336 337 336 336 336 335 335 338 339 341 344 346 347 349 350 350 350 349 349 349 349 349 348 349 350 350 350 349 350 350 348 347 346 346 344 342 339 337 333 329 326 322 319 318 317 316 315 312 310 308 305 301 298 297 296 295 293 289 285 280 275 271 266 263 259 256 252 249 246
353 350 350 350 349 349 347 346 345 344 343 342 341 339 338 339 337 336 336 335 332 332 331 332 336 338 340 344 346 347 349 350 349 350 349 349 348 348 348 349 349 349 350 350 350 350 350 350 349 348 347 346 344 340 337 334 329 325 322 320 318 317 316 315 313 311 309 306 303 302 301 300 298 296 293 289 285 279 274 270 266 262 259 257 254 251
350 348 349 349 348 347 345 344 344 343 343 342 342 340 339 339 338 336 335 333 330 329 330 332 335 338 340 343 345 346 348 348 348 349 349 349 348 348 349 349 349 349 350 350 351 350 350 350 350 349 348 347 345 342 338 334 330 325 321 319 318 318 317 316 315 313 311 309 307 307 306 305 303 300 296 291 286 281 276 272 268 264 262 260 257 254
348 347 347 347 347 346 344 343 343 343 344 343 342 342 340 338 338 336 333 332 330 330 332 333 335 340 342 342 344 345 346 347 347 348 349 349 349 348 349 349 349 349 349 351 351 351 351 351 351 350 349 349 347 344 340 335 331 326 322 320 319 319 318 317 316 315 314 312 312 311 311 312 310 307 303 296 290 284 280 277 272 268 265 263 260 257
346 345 345 345 346 345 344 343 342 343 344 343 342 341 340 339 337 335 334 333 332 332 334 335 336 341 344 342 343 344 344 345 347 347 348 349 349 349 348 348 349 349 349 350 352 352 352 351 351 351 350 350 349 347 342 337 333 328 324 322 321 321 320 318 317 316 315 314 314 314 315 315 316 316 313 305 297 291 287 283 279 275 270 267 264 261
343 344 345 344 344 344 343 342 342 343 342 343 343 341 340 338 336 335 335 335 336 335 336 338 338 341 343 341 341 342 343 344 346 348 348 349 349 349 348 348 349 349 349 350 351 352 352 352 352 352 351 350 351 350 345 339 334 330 326 324 323 323 322 320 318 317 316 315 315 316 317 317 319 321 321 316 306 298 293 290 287 283 279 274 270 265
342 344 344 343 342 342 342 342 342 342 341 342 341 340 339 337 336 337 337 338 340 340 340 341 341 341 342 341 340 341 343 345 347 348 349 349 349 348 348 348 349 349 349 350 351 352 352 352 352 352 352 351 351 351 348 342 336 331 328 326 325 325 324 321 319 318 317 316 317 317 318 319 321 323 326 326 318 307 300 296 293 290 286 282 278 273
343 344 342 341 341 341 341 342 342 341 341 340 340 340 340 339 339 339 340 342 345 345 343 343 342 341 341 341 341 342 345 347 348 348 348 348 348 347 347 348 349 350 350 350 351 352 353 353 353 353 353 352 352 352 350 345 339 334 331 329 327 326 325 323 321 319 318 317 318 319 319 320 322 323 326 329 328 321 311 304 300 296 293 289 285 281
342 341 340 340 340 340 341 341 341 341 340 340 341 342 342 342 342 342 342 344 348 349 346 344 342 342 342 342 342 344 346 346 346 347 347 347 347 346 347 348 349 350 350 350 351 352 353 353 354 354 354 353 352 352 352 347 342 337 333 331 329 328 327 326 323 322 320 319 319 320 320 321 323 324 326 328 330 331 326 318 310 303 299 295 291 286
339 340 340 340 340 340 340 340 341 341 341 341 342 342 343 343 344 344 344 345 348 350 348 344 341 342 344 344 343 345 345 344 345 347 346 346 346 346 348 349 349 350 350 351 351 352 353 353 354 354 354 353 353 352 352 350 345 340 336 332 330 329 328 327 325 323 322 320 320 320 321 321 323 324 326 327 328 330 332 330 325 317 309 302 296 292
337 340 341 340 340 341 341 341 341 342 343 343 343 344 344 345 345 346 345 343 345 349 349 345 341 342 347 347 345 345 344 344 346 346 345 345 346 347 348 350 350 350 350 351 351 352 352 353 354 355 355 354 353 353 352 351 348 343 339 335 332 329 328 327 326 324 323 322 321 321 321 321 323 324 326 327 328 329 330 332 333 331 326 319 311 303
338 340 341 340 341 342 342 341 341 343 344 344 344 344 344 345 346 346 344 342 342 345 348 347 343 344 348 348 346 345 346 346 346 346 345 346 347 348 348 349 350 350 351 351 351 351 352 353 354 355 355 354 354 353 353 352 349 345 341 338 335 331 328 327 326 324 323 323 322 322 322 321 322 324 325 327 328 330 330 330 331 332 333 333 330 323
337 339 340 340 341 341 342 342 342 344 344 344 344 344 344 345 345 344 343 341 340 342 347 350 347 344 347 349 346 346 348 348 347 346 346 346 347 348 348 349 350 351 351 351 350 351 352 353 354 354 355 355 354 354 353 353 350 347 342 339 337 334 330 327 326 324 323 323 324 323 323 322 321 322 324 326 328 330 331 331 331 331 331 332 333 333
336 338 339 340 341 341 341 343 343 344 344 343 343 343 344 344 344 343 343 342 340 341 345 351 349 344 346 349 347 348 349 348 348 347 347 347 347 348 348 349 350 351 351 350 350 351 352 353 354 354 355 356 355 354 354 353 352 348 344 341 339 336 333 329 327 325 323 323 324 325 324 323 321 321 322 324 326 329 331 331 332 333 332 332 332 332
335 337 339 340 340 341 342 343 343 343 342 342 342 344 344 343 342 343 344 343 341 340 343 350 351 344 346 350 348 349 349 348 349 348 348 349 348 348 349 349 350 350 350 350 350 351 352 353 354 354 355 356 356 355 354 354 353 350 346 344 342 339 336 332 328 325 324 324 324 326 326 325 323 322 321 321 324 327 330 332 333 334 334 334 334 333
334 336 338 338 339 341 343 343 342 342 343 343 343 344 343 342 342 343 344 343 342 340 341 348 354 347 345 349 349 349 350 349 350 350 349 350 349 348 350 350 350 350 350 350 350 351 352 352 353 354 355 356 356 356 355 354 354 352 349 346 344 342 339 335 331 327 325 324 325 326 326 326 326 325 323 321 322 325 327 330 332 334 335 335 335 334
333 335 337 338 339 341 341 342 343 343 344 344 343 344 343 342 342 342 344 345 344 342 341 346 354 350 345 349 349 349 351 351 351 352 350 350 349 349 350 350 349 349 350 350 350 351 352 352 353 354 355 356 356 356 355 354 354 353 351 348 346 344 341 337 334 331 327 324 325 327 327 326 327 328 326 323 321 322 325 327 329 332 334 335 336 336
333 334 336 338 339 339 340 342 344 343 344 345 344 344 343 342 342 341 343 345 346 345 342 344 352 352 346 348 350 350 352 352 352 353 351 350 349 349 351 350 349 349 350 350 350 351 352 352 353 354 355 356 356 356 356 355 354 354 353 351 348 346 343 339 336 333 329 326 326 327 328 328 328 329 329 325 322 320 322 325 327 331 334 335 337 338
332 333 335 337 338 339 340 341 343 343 344 346 345 344 343 342 341 340 342 345 347 347 344 344 350 351 347 348 351 350 352 353 352 353 352 351 350 351 351 351 350 350 350 350 350 350 351 352 352 353 354 355 356 356 356 356 355 354 354 352 350 348 345 341 338 335 332 330 328 328 328 329 329 329 330 327 322 319 321 323 326 330 334 336 337 337
331 333 334 335 337 339 339 339 343 343 343 346 346 345 343 342 341 340 341 344 347 349 345 343 349 351 348 349 351 351 352 353 352 352 352 352 352 352 352 352 351 350 350 350 350 350 350 351 352 353 354 355 356 356 356 356 355 355 355 354 352 349 347 343 340 337 336 334 332 330 330 331 330 330 331 328 322 318 319 322 326 331 334 336 337 337
331 333 334 334 336 339 339 340 343 344 344 346 346 345 343 342 341 340 340 342 346 349 347 344 348 352 350 350 351 351 352 353 352 352 352 353 353 353 353 352 351 351 351 351 350 350 350 350 351 353 354 355 356 356 356 356 355 355 355 355 353 351 348 345 341 339 339 339 336 333 333 333 332 332 332 329 322 318 318 322 327 332 334 336 337 337
331 333 334 335 336 339 341 341 343 344 344 344 345 345 344 342 340 338 338 341 344 348 349 345 345 351 352 350 351 352 352 353 352 352 352 353 354 354 353 353 352 352 351 351 350 350 349 350 351 352 353 355 355 356 356 356 356 356 356 356 355 353 350 347 344 341 342 342 339 337 336 335 335 334 333 329 323 319 319 323 328 333 335 337 338 338
331 332 335 336 336 338 341 341 341 342 342 342 343 343 343 341 340 338 338 341 343 346 349 345 343 348 351 350 350 351 351 352 352 352 353 354 354 354 354 353 353 352 351 350 350 349 349 349 350 351 353 354 355 356 356 357 356 356 356 357 356 354 352 349 347 345 345 345 343 341 339 338 337 336 333 330 325 321 322 326 331 336 338 339 340 340
330 331 334 335 334 335 338 338 338 339 340 340 341 341 342 341 340 338 338 340 342 343 346 346 344 346 349 350 349 350 350 351 352 352 353 353 353 353 353 354 354 353 352 351 350 349 349 349 350 351 352 354 355 355 356 357 357 356 357 358 358 356 353 351 350 348 348 349 348 345 342 340 340 339 336 333 329 327 329 332 336 341 342 343 345 345
329 330 331 334 333 333 335 336 337 338 339 339 339 340 340 340 340 340 338 339 342 342 343 346 346 345 347 349 349 349 349 350 352 352 353 353 353 353 353 353 354 353 352 351 350 350 349 350 349 350 351 353 354 355 356 357 357 357 357 358 359 358 356 354 353 352 352 353 352 349 345 345 345 343 341 341 339 339 341 342 345 349 349 350 352 351
328 329 329 332 332 331 333 335 336 337 337 337 338 338 339 340 342 341 339 339 342 343 342 344 346 346 346 348 349 348 349 350 351 352 353 353 353 353 352 353 353 353 352 352 351 350 350 349 349 349 351 352 354 355 356 357 357 357 357 359 360 359 358 356 355 355 356 357 355 351 349 350 351 351 352 353 354 355 355 354 356 359 358 359 359 358
327 327 328 330 331 331 332 333 335 335 335 337 338 337 337 340 343 342 340 339 341 342 342 342 345 346 346 346 348 349 349 350 351 352 352 352 352 352 352 352 353 352 352 352 352 351 350 350 349 349 350 351 353 354 356 356 357 357 358 359 1 1 359 358 358 359 359 359 357 354 354 356 359 2 5 7 7 6 5 4 6 8 8 7 5 3
325 326 326 328 330 330 330 331 333 334 336 337 337 336 337 341 343 344 341 339 340 342 342 342 343 344 345 346 348 349 349 350 351 352 352 351 351 351 351 352 352 352 352 352 352 352 351 350 349 348 349 351 352 353 355 356 357 357 358 360 1 2 1 360 360 1 1 1 360 359 359 2 7 13 17 16 14 13 12 11 13 15 15 13 10 7
323 324 324 325 328 329 329 330 333 334 336 337 336 336 338 340 342 344 342 338 339 341 341 342 343 343 344 345 347 348 349 349 351 351 351 350 350 351 351 351 351 351 351 352 352 352 351 350 349 348 348 350 351 353 354 356 357 357 358 360 1 3 2 1 1 2 3 3 3 4 4 7 13 20 21 19 16 16 17 18 20 22 21 18 14 12
321 322 323 324 326 328 328 330 332 334 334 335 336 337 338 338 339 343 342 338 338 340 340 341 341 341 342 344 345 347 348 348 350 350 350 349 350 350 350 350 351 351 351 351 352 352 352 351 350 349 348 349 351 352 354 356 357 357 358 359 2 3 3 3 2 4 5 5 6 8 9 11 17 21 20 18 17 18 21 23 26 27 27 25 24 24
319 320 321 322 324 326 328 328 331 333 333 335 337 337 336 335 336 341 344 339 338 340 339 339 339 340 341 343 344 346 347 347 348 349 349 349 349 350 350 350 350 351 351 351 352 352 352 352 351 350 349 349 350 351 353 355 356 357 358 359 1 3 4 4 3 4 6 7 9 11 13 15 19 20 19 18 19 20 23 27 30 33 34 34 34 33
318 319 319 321 322 325 326 327 329 333 335 335 336 335 334 334 334 339 345 342 338 339 339 338 339 340 341 343 343 344 346 346 347 348 348 348 348 349 349 350 350 350 350 351 352 353 353 353 352 351 350 349 349 350 352 354 356 357 358 359 1 3 5 5 4 5 6 8 11 14 16 17 18 18 18 20 21 23 26 30 33 37 38 37 36 34
317 318 318 320 322 323 325 326 328 332 334 333 332 332 333 335 335 337 343 342 338 337 338 337 338 339 340 341 342 343 344 345 346 347 347 347 347 348 349 349 349 349 350 352 352 353 353 353 353 352 351 350 349 349 351 354 356 357 358 359 0 3 5 5 5 5 7 9 12 15 16 17 17 18 19 21 22 24 29 32 36 38 37 35 32 29
316 317 317 319 321 322 324 326 327 329 332 332 332 333 334 335 336 336 339 341 338 337 337 337 337 338 339 340 341 341 343 345 346 346 346 346 346 347 348 349 349 349 351 352 352 353 353 353 353 353 352 351 349 349 350 353 355 357 358 359 360 2 4 6 6 6 7 9 12 15 16 16 17 18 20 22 22 25 29 32 34 34 31 29 26 23
315 317 317 319 321 322 323 325 326 329 332 333 333 334 334 335 335 335 337 339 338 336 337 337 337 338 339 340 340 341 342 344 345 346 345 345 346 347 348 348 348 349 351 352 352 352 353 353 353 353 353 352 350 349 349 351 355 357 358 359 359 1 3 5 6 7 8 10 13 15 16 16 17 18 20 21 23 25 28 29 29 28 26 24 22 19
314 316 317 318 320 321 322 325 327 329 332 332 331 332 333 334 335 335 335 338 338 337 338 338 338 338 338 339 340 340 341 343 345 346 345 345 345 346 348 348 348 349 351 352 352 352 352 353 353 353 353 352 351 349 348 350 353 356 357 358 359 360 2 4 6 7 9 12 16 19 19 19 21 22 22 24 25 27 28 28 26 25 23 21 19 16
314 315 316 317 319 320 321 324 326 328 330 330 329 330 332 333 334 334 334 337 338 337 338 337 337 337 338 338 339 340 341 343 345 345 345 345 345 346 347 348 348 349 350 351 352 352 352 352 352 353 353 352 352 350 348 349 352 355 357 358 359 359 0 2 4 6 9 14 19 23 25 26 27 28 27 28 29 29 29 26 24 22 20 17 16 12
314 315 315 317 319 320 321 323 325 326 328 329 329 330 331 332 333 333 334 335 336 336 336 336 336 336 337 337 338 339 341 342 344 345 345 345 344 345 346 347 348 349 350 351 351 351 351 351 351 352 352 352 352 351 349 349 351 354 356 358 358 358 359 0 2 4 7 11 16 21 24 26 28 29 28 28 28 27 26 22 18 16 13 10 10 7
315 315 315 317 319 319 321 324 324 325 328 329 328 328 329 330 331 332 333 334 334 334 334 335 335 335 336 337 338 338 340 342 343 344 344 344 344 344 345 346 347 348 349 350 350 350 350 350 351 351 351 351 352 351 350 348 349 352 354 357 358 358 358 358 360 1 2 5 8 11 14 17 21 23 23 21 21 20 18 14 10 8 6 4 5 4
315 314 314 317 319 319 322 326 324 323 327 328 327 327 328 329 330 330 331 332 333 333 333 334 335 335 336 336 337 337 339 341 342 342 342 343 343 343 344 345 346 347 348 349 349 349 349 349 350 350 350 350 351 351 351 349 349 350 353 355 357 358 358 357 357 358 358 359 360 1 2 5 9 13 14 13 12 10 8 6 3 1 1 1 1 2
313 311 313 317 318 319 323 326 322 321 324 326 325 326 326 327 328 329 330 331 332 332 333 334 334 335 334 334 335 336 338 340 341 341 341 341 342 342 342 343 345 346 347 347 348 348 348 348 349 349 349 349 350 351 351 350 348 348 350 353 355 357 357 356 355 355 355 354 353 352 352 353 357 1 4 3 3 2 1 1 360 358 358 359 358 0
311 310 314 317 316 318 323 323 318 318 322 324 324 324 324 325 327 328 328 330 331 332 333 333 334 333 332 332 332 334 336 338 339 339 339 340 341 341 341 342 343 344 345 346 346 347 347 347 347 348 348 348 349 350 351 351 349 347 348 351 354 355 357 357 355 353 353 352 349 346 345 344 345 348 351 353 354 355 356 357 357 356 357 357 356 357
309 310 314 315 314 317 320 318 314 317 321 322 322 323 324 325 326 327 328 330 331 332 332 332 331 330 329 329 331 332 334 336 337 338 338 339 340 340 340 341 342 343 344 344 345 346 346 346 346 347 347 347 347 349 350 351 350 348 347 349 352 354 355 356 355 353 351 350 347 343 339 338 337 338 340 342 345 347 349 351 353 352 353 354 352 353
308 312 314 313 313 316 318 316 315 319 323 322 322 323 324 324 325 326 328 329 330 330 330 329 328 328 327 328 330 331 333 335 336 336 337 338 339 339 339 340 341 342 343 343 344 345 345 346 345 345 345 346 346 347 349 350 351 349 346 347 349 352 354 355 355 354 351 349 346 342 337 333 331 330 331 332 334 337 339 342 344 345 346 346 346 346
310 314 313 312 314 317 318 318 318 321 324 323 322 322 322 323 324 326 327 327 327 327 326 326 325 325 326 327 329 330 332 333 335 336 336 337 338 339 339 340 341 342 343 343 343 344 345 345 344 344 344 345 345 346 347 349 351 350 347 345 347 349 352 353 354 354 352 349 346 343 337 332 326 324 323 324 325 327 328 331 333 335 336 337 337 338
313 315 313 314 317 320 320 321 320 322 324 323 320 320 321 323 323 324 325 324 324 324 323 323 324 325 326 327 329 330 332 333 334 335 336 337 338 339 339 340 340 341 342 342 343 343 344 344 344 344 344 344 344 345 346 347 350 350 348 345 344 347 349 351 352 353 353 350 347 344 339 333 326 320 317 316 317 318 319 321 322 324 326 327 327 329
315 315 314 316 321 323 324 322 321 322 323 322 320 321 323 323 322 322 322 322 321 322 322 323 324 326 327 328 329 330 331 332 333 335 336 337 338 339 340 340 340 340 341 342 342 342 343 343 343 343 343 344 344 344 344 345 348 350 349 345 343 344 347 349 350 351 352 351 349 345 341 336 329 320 313 309 309 310 311 312 313 314 316 317 318 320
315 316 319 320 323 325 325 321 319 320 321 321 321 321 322 321 319 320 320 320 320 321 322 324 326 326 327 328 329 329 330 332 333 334 335 337 338 339 339 339 340 340 340 341 341 341 341 342 342 343 343 344 344 343 343 344 346 349 349 346 343 342 344 346 348 350 350 350 349 347 344 339 333 325 316 308 303 302 302 304 304 305 307 308 309 311